YAOGAN 30

Satellite information

Favourite Embed

Satellite Type and Status

PAYLOADIN ORBIT

Key statistics

Satellite YAOGAN 30 at a glance.

Uptime

3280

Days in orbit

Revolutions

≈ 14.8

Per day

Orbit

SSO

Sun Synchronous Orbit

Inclination

98.0

Latest

Satellite identification and parameters

Extended collection of information and parameters for YAOGAN 30.

Object identification

Identified? True

Debris? False

Object name: YAOGAN 30

International designator: 2016-029A

Object number (NORAD): 41473

Object ID (CCSDS): 41473

Country: PEOPLES REPUBLIC OF CHINA (PRC)

Current information (Y/N): Y

RCS size: LARGE

Orbital parameters

Period: 97.546 minutes

Inclination: 97.9572 deg

SMA: 7019.42 km

Apoapsis: 653.637 km

Periapsis: 628.933 km

RAAN: 180.1271 deg

Eccentricy: 0.0017597

Argument of periapsis: 99.3066 deg

Mean anomaly: 261.0135 deg

Mean motion: 14.76219314 rev/day

Mean motion (dot): 0.0000093 rev/day2

B* drag term: 0.0001414 1/REarth

Two-line elements (TLE)

Creation date: May 8, 2025, 3:01 a.m.

Reference frame: TEME

Reference center: EARTH

Epoch: May 7, 2025, 9:41 p.m. UTC

TLE line 0: 0 YAOGAN 30

TLE line 1: 1 41473U 16029A 25127.90394470 .00000930 00000-0 14140-3 0 9995

TLE line 2: 2 41473 97.9572 180.1271 0017597 99.3066 261.0135 14.76219314483878

Live tracking on map

Real-time ground track for satellite YAOGAN 30.

In-orbit conjunctions

There are no conjunctions computed for YAOGAN 30, at the moment. Check back to stay up to date, as we update our databases every day.

Go to all conjunctions

Associated space launch

The satellite will be used for experiments, land surveys, crop yield estimates and disaster relief.

YAOGAN 30 was lifted into orbit during the mission ‘Long March 2D | Yaogan-30’, on board a Long March 2D space rocket.

The launch took place on May 15, 2016, 2:43 a.m. from Launch Area 4 (SLS-2 / 603).

For more information about the launch, click the button.

Launch to space Long March 2D | Yaogan-30
Long March 2D | Yaogan-30

Agency: N/A

Status: Launch Successful

Launch date: May 15, 2016, 2:43 a.m. UTC

Rocket: Long March 2D

Launch pad: Launch Area 4 (SLS-2 / 603)

Location: Jiuquan Satellite Launch Center, People's Republic of China

...

Latest news about this satellite

There are no fresh news available about this satellite. Check back as we update our databases every day.


Newsletter sign-up

Weekly statistics, charts and insights to help you stay on top of the space industry.